Location: Basse Occidentale du Courleau
(48.3833°N, 4.8333°W)
Time: 19:26:05
(UTC+00:00)

Cosmos 2056 Rocket - Pass Details

Date: 05 July 2020
Orbit: 741 x 801 km, 74.0° (Epoch: 05 August)

Event Time Altitude Azimuth Distance (km) Brightness Sun altitude
Rises 22:57:04 0° 338° (NNW) 3,302 8.6 -16.3°
Reaches altitude 10° 22:59:30 10° 342° (NNW) 2,375 7.4 -16.5°
Maximum altitude 23:04:53 65° 64° (ENE) 880 3.8 -16.8°
Enters shadow 23:07:57 26° 139° (SE) 1,532 4.5 -16.9°
